TimeMST,TemperatureF,Dew PointF,Humidity,Sea Level PressureIn,VisibilityMPH,Wind Direction,Wind SpeedMPH,Gust SpeedMPH,PrecipitationIn,Events,Conditions,WindDirDegrees,DateUTC
12:53 AM,-4.0,-8.0,83,30.36,10.0,Calm,Calm,-,N/A,,Overcast,0,2013-01-14 07:53:00
1:53 AM,-4.0,-9.0,79,30.35,10.0,NW,3.5,-,N/A,,Partly Cloudy,310,2013-01-14 08:53:00
2:53 AM,-4.0,-9.9,76,30.36,10.0,Calm,Calm,-,N/A,,Mostly Cloudy,0,2013-01-14 09:53:00
3:53 AM,-6.0,-11.0,79,30.37,10.0,WNW,3.5,-,N/A,,Clear,290,2013-01-14 10:53:00
4:53 AM,-8.0,-15.0,71,30.38,10.0,Calm,Calm,-,N/A,,Clear,0,2013-01-14 11:53:00
5:53 AM,-9.9,-15.0,78,30.42,10.0,North,4.6,-,N/A,,Clear,350,2013-01-14 12:53:00
6:53 AM,-8.0,-15.0,71,30.44,10.0,Calm,Calm,-,N/A,,Clear,0,2013-01-14 13:53:00
7:53 AM,-9.0,-14.1,79,30.45,10.0,Calm,Calm,-,N/A,,Clear,0,2013-01-14 14:53:00
8:53 AM,-2.9,-7.1,82,30.43,10.0,Calm,Calm,-,N/A,,Clear,0,2013-01-14 15:53:00
9:53 AM,1.9,-5.1,72,30.41,10.0,NNW,3.5,-,N/A,,Clear,330,2013-01-14 16:53:00
10:53 AM,6.1,-2.0,69,30.38,10.0,Calm,Calm,-,N/A,,Clear,0,2013-01-14 17:53:00
11:53 AM,14.0,-2.0,49,30.30,10.0,West,15.0,-,N/A,,Clear,280,2013-01-14 18:53:00
12:53 PM,15.1,-0.9,49,30.28,10.0,WNW,17.3,-,N/A,,Clear,300,2013-01-14 19:53:00
1:53 PM,15.1,-2.0,47,30.27,10.0,WNW,19.6,-,N/A,,Clear,300,2013-01-14 20:53:00
3:53 PM,12.9,-4.0,47,30.30,10.0,West,13.8,-,N/A,,Clear,280,2013-01-14 22:53:00
4:53 PM,7.0,-6.0,55,30.33,10.0,West,8.1,-,N/A,,Clear,270,2013-01-14 23:53:00
5:53 PM,5.0,-8.0,55,30.36,10.0,SW,5.8,-,N/A,,Clear,220,2013-01-15 00:53:00
6:53 PM,5.0,-9.0,52,30.35,10.0,West,3.5,-,N/A,,Clear,260,2013-01-15 01:53:00
7:53 PM,-0.9,-11.0,62,30.36,10.0,WNW,8.1,-,N/A,,Clear,290,2013-01-15 02:53:00
8:53 PM,3.0,-11.0,52,30.31,10.0,Calm,Calm,-,N/A,,Clear,0,2013-01-15 03:53:00
9:53 PM,-0.0,-11.9,57,30.30,10.0,Calm,Calm,-,N/A,,Clear,0,2013-01-15 04:53:00
10:53 PM,-2.9,-14.1,59,30.29,10.0,NE,3.5,-,N/A,,Clear,50,2013-01-15 05:53:00
11:53 PM,-2.0,-11.0,66,30.27,10.0,NNW,3.5,-,N/A,,Scattered Clouds,330,2013-01-15 06:53:00